Regional Weather Roundup
Issued by NWS

Home | Current Version | Previous Version | Text Only | Print | Product List | Glossary On
Versions: 1 2 3 4 5 6 7 8 9 10 11 12 13 14 15 16 17 18 19 20 21 22 23 24 25 26 27 28 29 30 31 32 33 34 35 36 37 38 39 40 41 42 43 44 45 46 47 48 49 50
000
ASUS43 KBIS 291802
RWRND

NORTH DAKOTA REGIONAL WEATHER ROUNDUP
NATIONAL WEATHER SERVICE BISMARCK ND
100 PM CDT SAT AUG 29 2015

NOTE: "FAIR" INDICATES FEW OR NO CLOUDS BELOW 12,000 FEET WITH NO
SIGNIFICANT WEATHER AND/OR OBSTRUCTIONS TO VISIBILITY.


NDZ001>003-009>011-017-291900-
NORTHWEST NORTH DAKOTA

CITY           SKY/WX    TMP DP  RH WIND       PRES   REMARKS
WILLISTON      PTSUNNY   87  50  27 VRB7      29.88F HAZE
6HR MIN TEMP:  54; 6HR MAX TEMP:  88;

MINOT          CLOUDY    85  52  32 S8        29.87F HAZE
MINOT AFB      CLOUDY    85  55  36 S13       29.85F
$$

NDZ018>021-031>035-040>046-291900-
SOUTHWEST NORTH DAKOTA

CITY           SKY/WX    TMP DP  RH WIND       PRES   REMARKS
BISMARCK       CLOUDY    84  60  44 S5        29.93F HAZE
6HR MIN TEMP:  54; 6HR MAX TEMP:  84;

DICKINSON      SUNNY     93  44  18 S13       29.92F HAZE
GARRISON         N/A     83  59  44 S6        29.91F
6HR MIN TEMP:  53; 6HR MAX TEMP:  83;

HETTINGER ARPT SUNNY     92  48  22 S13       29.98F HAZE
$$

NDZ004>008-012>016-024-026-027-054-291900-
NORTHEAST NORTH DAKOTA

CITY           SKY/WX    TMP DP  RH WIND       PRES   REMARKS
GRAND FORKS    CLOUDY    76  67  73 S9        29.90F
GRND FRKS AFB  MOSUNNY   76  69  77 S8        29.91S
DEVILS LAKE    MOSUNNY   75  63  64 S6        29.90F
$$

NDZ022-023-025-028>030-036>039-047>053-291900-
SOUTHEAST NORTH DAKOTA

CITY           SKY/WX    TMP DP  RH WIND       PRES   REMARKS
FARGO          MOSUNNY   79  66  64 S10G18    29.94F
6HR MIN TEMP:  62; 6HR MAX TEMP:  79;

JAMESTOWN      MOSUNNY   76  68  76 SW6       29.93S
$$



USA.gov is the U.S. government's official web portal to all federal, state and local government web resources and services.